NEA32CM CYOW-KCLE

Flight info

Callsign NEA32CM
Flight time 1h 12m
Altitude 38000
Route TUKIR Q806 BOBTA DCT DERLO DCT DOZRR BRWNZ4
Aircraft A319/M-SDE3FGHIRWY/LB1

Departure

Time 2026-05-07 22:22
Airport Ottawa Macdonald-Cartier International Airport (CYOW)

Arrival

Time 2026-05-07 23:34
Airport Cleveland Hopkins International Airport (KCLE)
Time Latitude Longitude Altitude Speed Heading
2026-05-07 22:00 45.32255 -75.67028 386 ft 0 kts 36°
2026-05-07 22:14 45.32246 -75.67037 386 ft 4 kts 39°
2026-05-07 22:14 45.32227 -75.67064 386 ft 4 kts 57°
2026-05-07 22:14 45.32216 -75.67098 387 ft 4 kts 86°
2026-05-07 22:14 45.32220 -75.67129 387 ft 1 kts 124°
2026-05-07 22:15 45.32221 -75.67130 387 ft 0 kts 124°
2026-05-07 22:17 45.32213 -75.67114 387 ft 4 kts 124°
2026-05-07 22:18 45.32191 -75.67067 387 ft 10 kts 124°
2026-05-07 22:18 45.32064 -75.66826 390 ft 17 kts 126°
2026-05-07 22:18 45.31989 -75.66677 390 ft 19 kts 126°
2026-05-07 22:19 45.31917 -75.66544 389 ft 16 kts 128°
2026-05-07 22:19 45.31828 -75.66467 387 ft 16 kts 150°
2026-05-07 22:19 45.31756 -75.66338 387 ft 18 kts 127°
2026-05-07 22:19 45.31673 -75.66180 385 ft 21 kts 125°
2026-05-07 22:20 45.31585 -75.66008 385 ft 22 kts 126°
2026-05-07 22:20 45.31488 -75.65822 387 ft 23 kts 126°
2026-05-07 22:20 45.31391 -75.65633 385 ft 21 kts 126°
2026-05-07 22:20 45.31284 -75.65481 384 ft 23 kts 163°
2026-05-07 22:21 45.31134 -75.65468 382 ft 18 kts 213°
2026-05-07 22:21 45.31116 -75.65564 383 ft 8 kts 306°
2026-05-07 22:21 45.31178 -75.65685 387 ft 34 kts 307°
2026-05-07 22:21 45.31438 -75.66185 385 ft 92 kts 306°
2026-05-07 22:22 45.31926 -75.67127 391 ft 144 kts 306°
2026-05-07 22:22 45.32524 -75.68257 1008 ft 142 kts 304°
2026-05-07 22:22 45.33114 -75.69413 1661 ft 147 kts 304°
2026-05-07 22:22 45.33611 -75.70734 2153 ft 165 kts 281°
2026-05-07 22:23 45.33473 -75.72467 2540 ft 191 kts 255°
2026-05-07 22:23 45.33091 -75.74375 3086 ft 210 kts 258°
2026-05-07 22:23 45.32731 -75.76512 3677 ft 233 kts 259°
2026-05-07 22:23 45.32365 -75.78812 4618 ft 242 kts 259°
2026-05-07 22:24 45.31995 -75.81167 5677 ft 246 kts 259°
2026-05-07 22:24 45.31622 -75.83554 6715 ft 249 kts 259°
2026-05-07 22:24 45.31240 -75.85978 7711 ft 254 kts 259°
2026-05-07 22:24 45.30850 -75.88437 8723 ft 257 kts 259°
2026-05-07 22:25 45.30457 -75.90929 9742 ft 260 kts 259°
2026-05-07 22:25 45.30055 -75.93489 10378 ft 276 kts 259°
2026-05-07 22:25 45.29621 -75.96255 10800 ft 296 kts 259°
2026-05-07 22:25 45.29164 -75.99147 11542 ft 303 kts 259°
2026-05-07 22:26 45.28695 -76.02087 12365 ft 308 kts 259°
2026-05-07 22:26 45.28219 -76.05062 13200 ft 311 kts 259°
2026-05-07 22:26 45.27734 -76.08078 13989 ft 315 kts 259°
2026-05-07 22:26 45.27244 -76.11120 14747 ft 317 kts 259°
2026-05-07 22:27 45.26753 -76.14177 15523 ft 319 kts 259°
2026-05-07 22:27 45.26261 -76.17254 16301 ft 320 kts 259°
2026-05-07 22:27 45.25767 -76.20349 17078 ft 322 kts 259°
2026-05-07 22:27 45.25202 -76.23434 17856 ft 326 kts 253°
2026-05-07 22:28 45.24240 -76.26366 18556 ft 331 kts 244°
2026-05-07 22:28 45.23110 -76.29217 19219 ft 333 kts 244°
2026-05-07 22:28 45.21978 -76.32091 19881 ft 335 kts 244°
2026-05-07 22:28 45.20844 -76.34987 20565 ft 337 kts 244°
2026-05-07 22:29 45.19703 -76.37900 21217 ft 339 kts 244°
2026-05-07 22:29 45.18551 -76.40832 21847 ft 342 kts 244°
2026-05-07 22:29 45.17388 -76.43787 22430 ft 346 kts 244°
2026-05-07 22:29 45.16207 -76.46778 22991 ft 349 kts 243°
2026-05-07 22:30 45.15016 -76.49782 23628 ft 350 kts 243°
2026-05-07 22:30 45.13816 -76.52800 24156 ft 352 kts 243°
2026-05-07 22:30 45.12613 -76.55831 24666 ft 355 kts 243°
2026-05-07 22:30 45.11402 -76.58888 25160 ft 357 kts 243°
2026-05-07 22:31 45.10187 -76.61962 25640 ft 359 kts 243°
2026-05-07 22:31 45.08965 -76.65051 26138 ft 362 kts 243°
2026-05-07 22:31 45.07730 -76.68163 26606 ft 364 kts 243°
2026-05-07 22:31 45.06484 -76.71295 27071 ft 366 kts 243°
2026-05-07 22:32 45.05227 -76.74448 27530 ft 369 kts 243°
2026-05-07 22:32 45.03960 -76.77614 27994 ft 371 kts 243°
2026-05-07 22:32 45.02701 -76.80762 28444 ft 374 kts 243°
2026-05-07 22:32 45.01419 -76.83972 28894 ft 376 kts 243°
2026-05-07 22:33 45.00129 -76.87201 29367 ft 378 kts 243°
2026-05-07 22:33 44.98833 -76.90431 29845 ft 379 kts 243°
2026-05-07 22:33 44.97524 -76.93692 30164 ft 383 kts 243°
2026-05-07 22:33 44.96205 -76.96981 30450 ft 387 kts 242°
2026-05-07 22:34 44.94872 -77.00298 30760 ft 390 kts 242°
2026-05-07 22:34 44.93531 -77.03634 31061 ft 392 kts 242°
2026-05-07 22:34 44.92178 -77.06993 31354 ft 395 kts 242°
2026-05-07 22:34 44.90816 -77.10369 31637 ft 397 kts 242°
2026-05-07 22:35 44.89443 -77.13765 31927 ft 400 kts 242°
2026-05-07 22:35 44.88061 -77.17177 32255 ft 401 kts 242°
2026-05-07 22:35 44.86680 -77.20582 32666 ft 400 kts 242°
2026-05-07 22:35 44.85301 -77.23988 33057 ft 399 kts 242°
2026-05-07 22:36 44.83931 -77.27375 33560 ft 397 kts 242°
2026-05-07 22:36 44.82562 -77.30750 33970 ft 397 kts 242°
2026-05-07 22:36 44.81191 -77.34124 34310 ft 397 kts 242°
2026-05-07 22:36 44.79818 -77.37497 34625 ft 397 kts 242°
2026-05-07 22:37 44.78442 -77.40865 34925 ft 398 kts 242°
2026-05-07 22:37 44.77060 -77.44246 35197 ft 399 kts 242°
2026-05-07 22:37 44.75672 -77.47635 35488 ft 400 kts 242°
2026-05-07 22:37 44.74285 -77.51026 35783 ft 400 kts 242°
2026-05-07 22:38 44.72899 -77.54416 36066 ft 400 kts 242°
2026-05-07 22:38 44.71509 -77.57810 36347 ft 401 kts 242°
2026-05-07 22:38 44.70115 -77.61204 36605 ft 400 kts 242°
2026-05-07 22:38 44.68721 -77.64593 36908 ft 400 kts 242°
2026-05-07 22:39 44.67330 -77.67973 37171 ft 400 kts 242°
2026-05-07 22:39 44.65935 -77.71349 37417 ft 400 kts 242°
2026-05-07 22:39 44.64537 -77.74728 37656 ft 400 kts 242°
2026-05-07 22:39 44.63137 -77.78109 37843 ft 401 kts 242°
2026-05-07 22:40 44.61737 -77.81487 37901 ft 400 kts 242°
2026-05-07 22:40 44.58946 -77.88231 37909 ft 400 kts 242°
2026-05-07 22:41 44.56151 -77.94989 37909 ft 401 kts 242°
2026-05-07 22:41 44.53351 -78.01727 37908 ft 399 kts 242°
2026-05-07 22:42 44.50545 -78.08430 37916 ft 399 kts 242°
2026-05-07 22:42 44.47748 -78.15132 37921 ft 399 kts 242°
2026-05-07 22:43 44.44946 -78.21832 37916 ft 398 kts 242°
2026-05-07 22:43 44.42142 -78.28519 37928 ft 398 kts 242°
2026-05-07 22:44 44.39334 -78.35197 37905 ft 398 kts 242°
2026-05-07 22:44 44.36976 -78.40794 37924 ft 398 kts 242°
2026-05-07 22:45 44.34161 -78.47441 37931 ft 398 kts 242°
2026-05-07 22:45 44.31322 -78.54121 37934 ft 397 kts 242°
2026-05-07 22:46 44.28516 -78.60747 37913 ft 396 kts 242°
2026-05-07 22:46 44.25702 -78.67360 37916 ft 396 kts 241°
2026-05-07 22:47 44.22879 -78.73968 37923 ft 397 kts 242°
2026-05-07 22:47 44.20058 -78.80584 37927 ft 397 kts 242°
2026-05-07 22:48 44.17224 -78.87196 37925 ft 398 kts 242°
2026-05-07 22:48 44.14383 -78.93808 37925 ft 398 kts 241°
2026-05-07 22:49 44.11464 -79.00354 37924 ft 398 kts 240°
2026-05-07 22:49 44.08492 -79.06862 37916 ft 398 kts 240°
2026-05-07 22:50 44.05518 -79.13365 37917 ft 399 kts 240°
2026-05-07 22:50 44.02549 -79.19874 37922 ft 399 kts 240°
2026-05-07 22:51 43.99561 -79.26435 37923 ft 399 kts 240°
2026-05-07 22:51 43.96590 -79.32950 37927 ft 399 kts 240°
2026-05-07 22:52 43.93614 -79.39463 37931 ft 400 kts 240°
2026-05-07 22:52 43.90633 -79.45958 37920 ft 399 kts 240°
2026-05-07 22:53 43.87647 -79.52445 37927 ft 399 kts 240°
2026-05-07 22:53 43.84657 -79.58924 37940 ft 399 kts 240°
2026-05-07 22:54 43.81666 -79.65386 37930 ft 399 kts 240°
2026-05-07 22:54 43.78534 -79.71788 37937 ft 400 kts 238°
2026-05-07 22:55 43.75293 -79.78037 37922 ft 400 kts 238°
2026-05-07 22:55 43.72050 -79.84279 37946 ft 399 kts 238°
2026-05-07 22:56 43.68839 -79.90544 37931 ft 399 kts 238°
2026-05-07 22:56 43.65612 -79.96858 37930 ft 399 kts 238°
2026-05-07 22:57 43.62399 -80.03116 37941 ft 399 kts 238°
2026-05-07 22:57 43.59181 -80.09359 37900 ft 399 kts 238°
2026-05-07 22:58 43.55963 -80.15594 37926 ft 399 kts 238°
2026-05-07 22:58 43.52741 -80.21805 37934 ft 398 kts 238°
2026-05-07 22:59 43.49519 -80.28020 37931 ft 398 kts 238°
2026-05-07 22:59 43.46297 -80.34232 37932 ft 398 kts 238°
2026-05-07 23:00 43.43070 -80.40426 37927 ft 398 kts 238°
2026-05-07 23:00 43.39842 -80.46620 37915 ft 398 kts 238°
2026-05-07 23:01 43.36612 -80.52796 37932 ft 398 kts 238°
2026-05-07 23:01 43.33382 -80.58968 37944 ft 398 kts 238°
2026-05-07 23:02 43.30148 -80.65126 37960 ft 398 kts 238°
2026-05-07 23:02 43.26907 -80.71279 37956 ft 398 kts 238°
2026-05-07 23:03 43.23665 -80.77422 37938 ft 397 kts 238°
2026-05-07 23:03 43.20424 -80.83555 37955 ft 397 kts 238°
2026-05-07 23:04 43.17181 -80.89679 37957 ft 397 kts 238°
2026-05-07 23:04 43.13942 -80.95792 37969 ft 396 kts 239°
2026-05-07 23:05 43.10707 -81.01893 37964 ft 396 kts 238°
2026-05-07 23:05 43.07454 -81.07970 37926 ft 397 kts 236°
2026-05-07 23:05 43.05523 -81.10767 37679 ft 412 kts 227°
2026-05-07 23:06 43.03243 -81.13212 37421 ft 418 kts 223°
2026-05-07 23:06 43.00932 -81.15602 37169 ft 416 kts 224°
2026-05-07 23:06 42.98637 -81.18000 36916 ft 414 kts 224°
2026-05-07 23:06 42.96367 -81.20395 36628 ft 411 kts 224°
2026-05-07 23:07 42.94105 -81.22797 35934 ft 413 kts 224°
2026-05-07 23:07 42.91840 -81.25206 35370 ft 409 kts 224°
2026-05-07 23:07 42.89616 -81.27563 34918 ft 402 kts 224°
2026-05-07 23:07 42.87429 -81.29878 34457 ft 394 kts 225°
2026-05-07 23:08 42.85281 -81.32150 33981 ft 388 kts 225°
2026-05-07 23:08 42.83164 -81.34388 33454 ft 382 kts 225°
2026-05-07 23:08 42.81084 -81.36582 32985 ft 374 kts 225°
2026-05-07 23:08 42.79043 -81.38725 32526 ft 367 kts 225°
2026-05-07 23:09 42.77040 -81.40826 32074 ft 360 kts 225°
2026-05-07 23:09 42.75071 -81.42890 31633 ft 354 kts 225°
2026-05-07 23:09 42.73165 -81.44891 31209 ft 348 kts 225°
2026-05-07 23:09 42.71265 -81.46885 30788 ft 342 kts 225°
2026-05-07 23:10 42.69391 -81.48851 30365 ft 338 kts 226°
2026-05-07 23:10 42.67545 -81.50785 29958 ft 333 kts 226°
2026-05-07 23:10 42.65724 -81.52692 29535 ft 328 kts 226°
2026-05-07 23:10 42.63931 -81.54569 29148 ft 323 kts 226°
2026-05-07 23:11 42.62156 -81.56427 28772 ft 321 kts 226°
2026-05-07 23:11 42.60392 -81.58272 28412 ft 319 kts 226°
2026-05-07 23:11 42.58643 -81.60099 28044 ft 316 kts 226°
2026-05-07 23:11 42.56907 -81.61914 27698 ft 314 kts 226°
2026-05-07 23:12 42.55180 -81.63716 27344 ft 312 kts 225°
2026-05-07 23:12 42.53462 -81.65506 26998 ft 311 kts 225°
2026-05-07 23:12 42.51742 -81.67295 26633 ft 312 kts 226°
2026-05-07 23:12 42.50018 -81.69089 26302 ft 312 kts 225°
2026-05-07 23:13 42.48299 -81.70878 25950 ft 311 kts 225°
2026-05-07 23:13 42.46584 -81.72661 25584 ft 311 kts 225°
2026-05-07 23:13 42.44872 -81.74441 25225 ft 310 kts 225°
2026-05-07 23:13 42.43164 -81.76213 24857 ft 309 kts 225°
2026-05-07 23:14 42.41455 -81.77984 24481 ft 309 kts 225°
2026-05-07 23:14 42.39750 -81.79751 24105 ft 309 kts 225°
2026-05-07 23:14 42.38047 -81.81515 23723 ft 309 kts 225°
2026-05-07 23:14 42.36337 -81.83282 23295 ft 309 kts 225°
2026-05-07 23:15 42.34632 -81.85045 22883 ft 308 kts 225°
2026-05-07 23:15 42.32937 -81.86796 22493 ft 306 kts 225°
2026-05-07 23:15 42.31246 -81.88537 22094 ft 304 kts 225°
2026-05-07 23:15 42.29568 -81.90264 21711 ft 303 kts 225°
2026-05-07 23:16 42.27899 -81.91983 21335 ft 301 kts 225°
2026-05-07 23:16 42.26233 -81.93696 20937 ft 301 kts 225°
2026-05-07 23:16 42.24572 -81.95403 20551 ft 300 kts 225°
2026-05-07 23:16 42.22915 -81.97108 20160 ft 299 kts 225°
2026-05-07 23:17 42.21262 -81.98809 19776 ft 299 kts 225°
2026-05-07 23:17 42.19609 -82.00508 19390 ft 299 kts 225°
2026-05-07 23:17 42.17958 -82.02205 19005 ft 298 kts 225°
2026-05-07 23:17 42.16309 -82.03898 18622 ft 298 kts 225°
2026-05-07 23:18 42.15214 -82.05021 18368 ft 298 kts 225°
2026-05-07 23:18 42.13572 -82.06702 17973 ft 298 kts 225°
2026-05-07 23:18 42.11928 -82.08385 17580 ft 295 kts 225°
2026-05-07 23:18 42.10298 -82.10054 17199 ft 294 kts 225°
2026-05-07 23:19 42.08675 -82.11710 16821 ft 292 kts 225°
2026-05-07 23:19 42.07061 -82.13357 16451 ft 290 kts 225°
2026-05-07 23:19 42.05458 -82.14990 16078 ft 289 kts 225°
2026-05-07 23:19 42.03859 -82.16620 15709 ft 287 kts 225°
2026-05-07 23:20 42.02148 -82.18051 15352 ft 294 kts 213°
2026-05-07 23:20 42.00188 -82.18950 14974 ft 304 kts 200°
2026-05-07 23:20 41.98066 -82.19335 14575 ft 308 kts 194°
2026-05-07 23:20 41.95935 -82.19661 14177 ft 308 kts 194°
2026-05-07 23:21 41.93805 -82.19992 13784 ft 308 kts 195°
2026-05-07 23:21 41.91681 -82.20327 13353 ft 307 kts 195°
2026-05-07 23:21 41.89559 -82.20652 12961 ft 307 kts 193°
2026-05-07 23:21 41.87400 -82.20452 12581 ft 318 kts 174°
2026-05-07 23:22 41.85315 -82.19343 12189 ft 328 kts 154°
2026-05-07 23:22 41.83547 -82.17372 11796 ft 335 kts 133°
2026-05-07 23:22 41.82242 -82.14771 11390 ft 337 kts 122°
2026-05-07 23:22 41.81030 -82.12084 10984 ft 337 kts 122°
2026-05-07 23:23 41.79813 -82.09404 10579 ft 336 kts 123°
2026-05-07 23:23 41.78596 -82.06739 10175 ft 335 kts 123°
2026-05-07 23:23 41.77376 -82.04084 9847 ft 332 kts 123°
2026-05-07 23:23 41.76185 -82.01500 9502 ft 322 kts 123°
2026-05-07 23:24 41.75014 -81.98954 8959 ft 318 kts 123°
2026-05-07 23:24 41.73871 -81.96459 8572 ft 310 kts 123°
2026-05-07 23:24 41.72757 -81.94029 8202 ft 302 kts 123°
2026-05-07 23:24 41.71670 -81.91664 7851 ft 296 kts 123°
2026-05-07 23:25 41.70576 -81.89329 7519 ft 296 kts 124°
2026-05-07 23:25 41.69466 -81.87009 7174 ft 296 kts 124°
2026-05-07 23:25 41.68364 -81.84710 6990 ft 290 kts 124°
2026-05-07 23:25 41.67316 -81.82483 7001 ft 276 kts 123°
2026-05-07 23:26 41.66311 -81.80329 6667 ft 276 kts 123°
2026-05-07 23:26 41.65275 -81.78110 5913 ft 286 kts 123°
2026-05-07 23:26 41.64217 -81.75869 5447 ft 283 kts 123°
2026-05-07 23:26 41.63179 -81.73672 5037 ft 277 kts 123°
2026-05-07 23:27 41.61187 -81.69473 4392 ft 261 kts 123°
2026-05-07 23:27 41.60217 -81.67435 4031 ft 258 kts 123°
2026-05-07 23:27 41.59170 -81.65516 3658 ft 253 kts 137°
2026-05-07 23:28 41.57913 -81.63936 3301 ft 243 kts 141°
2026-05-07 23:28 41.56619 -81.62576 3003 ft 227 kts 160°
2026-05-07 23:28 41.55196 -81.62249 3004 ft 198 kts 192°
2026-05-07 23:28 41.53970 -81.62837 3007 ft 181 kts 225°
2026-05-07 23:29 41.53257 -81.64138 3020 ft 171 kts 253°
2026-05-07 23:29 41.52945 -81.65656 3002 ft 168 kts 260°
2026-05-07 23:29 41.52639 -81.67170 2999 ft 171 kts 251°
2026-05-07 23:29 41.51909 -81.68407 3005 ft 169 kts 235°
2026-05-07 23:30 41.51167 -81.69604 3004 ft 166 kts 236°
2026-05-07 23:30 41.50427 -81.70794 3008 ft 167 kts 235°
2026-05-07 23:30 41.49681 -81.71983 3009 ft 167 kts 236°
2026-05-07 23:30 41.48938 -81.73164 2992 ft 161 kts 236°
2026-05-07 23:31 41.48273 -81.74212 2856 ft 137 kts 237°
2026-05-07 23:31 41.47682 -81.75151 2691 ft 129 kts 236°
2026-05-07 23:31 41.47111 -81.76060 2538 ft 127 kts 237°
2026-05-07 23:31 41.46552 -81.76949 2375 ft 123 kts 238°
2026-05-07 23:32 41.46003 -81.77821 2201 ft 124 kts 237°
2026-05-07 23:32 41.45447 -81.78703 2045 ft 123 kts 237°
2026-05-07 23:32 41.44896 -81.79577 1878 ft 122 kts 238°
2026-05-07 23:32 41.44342 -81.80451 1702 ft 123 kts 238°
2026-05-07 23:33 41.43791 -81.81320 1551 ft 126 kts 237°
2026-05-07 23:33 41.43225 -81.82209 1399 ft 124 kts 238°
2026-05-07 23:33 41.42667 -81.83087 1161 ft 122 kts 238°
2026-05-07 23:33 41.42125 -81.83955 996 ft 121 kts 236°
2026-05-07 23:34 41.41586 -81.84811 819 ft 121 kts 236°
2026-05-07 23:34 41.41087 -81.85618 771 ft 101 kts 230°
2026-05-07 23:34 41.40748 -81.86151 774 ft 52 kts 230°
2026-05-07 23:34 41.40584 -81.86257 772 ft 14 kts 172°
2026-05-07 23:35 41.40516 -81.86196 772 ft 4 kts 135°
2026-05-07 23:35 41.40484 -81.86162 772 ft 8 kts 142°
2026-05-07 23:35 41.40457 -81.86133 772 ft 5 kts 139°
2026-05-07 23:35 41.40444 -81.86119 772 ft 4 kts 139°
2026-05-07 23:36 41.40411 -81.86081 771 ft 8 kts 139°
2026-05-07 23:36 41.40359 -81.86021 771 ft 11 kts 139°
2026-05-07 23:36 41.40304 -81.85949 772 ft 12 kts 112°
2026-05-07 23:36 41.40345 -81.85852 772 ft 13 kts 50°
2026-05-07 23:37 41.40411 -81.85749 772 ft 16 kts 50°
2026-05-07 23:37 41.40486 -81.85630 773 ft 18 kts 49°
2026-05-07 23:37 41.40576 -81.85489 772 ft 22 kts 50°
2026-05-07 23:37 41.40653 -81.85300 772 ft 26 kts 90°
2026-05-07 23:38 41.40641 -81.85042 772 ft 30 kts 94°
2026-05-07 23:38 41.40629 -81.84786 772 ft 28 kts 93°
2026-05-07 23:38 41.40618 -81.84531 772 ft 25 kts 93°
2026-05-07 23:38 41.40708 -81.84432 772 ft 20 kts 359°
2026-05-07 23:39 41.40818 -81.84382 770 ft 13 kts 59°
2026-05-07 23:39 41.40786 -81.84303 770 ft 9 kts 130°
2026-05-07 23:39 41.40769 -81.84274 770 ft 2 kts 127°
2026-05-07 23:39 41.40763 -81.84266 770 ft 0 kts 130°